Hourly Weather Kitwe

Today, 28 October, Wednesday

Time Temperature Precipitation Wind Pressure Humidity
00:00 +24°C° 0 mm 2 mps 657 mmHg 43%
01:00 +23°C° 0 mm 1 mps 656 mmHg 46%
02:00 +21°C° 0 mm 2 mps 656 mmHg 49%
03:00 +20°C° 0 mm 2 mps 656 mmHg 50%
04:00 +20°C° 0 mm 2 mps 656 mmHg 51%
05:00 +19°C° 0 mm 2 mps 656 mmHg 52%
06:00 +21°C° 0 mm 3 mps 657 mmHg 48%
07:00 +25°C° 0 mm 4 mps 658 mmHg 45%
08:00 +27°C° 0 mm 5 mps 659 mmHg 41%
09:00 +29°C° 0 mm 4 mps 659 mmHg 35%
10:00 +33°C° 0 mm 3 mps 659 mmHg 30%
11:00 +35°C° 0 mm 3 mps 660 mmHg 24%
12:00 +36°C° 0 mm 3 mps 659 mmHg 22%
13:00 +37°C° 0 mm 2 mps 658 mmHg 20%
14:00 +38°C° 0 mm 2 mps 657 mmHg 17%
15:00 +36°C° 0 mm 2 mps 657 mmHg 19%
16:00 +35°C° 0 mm 2 mps 656 mmHg 21%
17:00 +32°C° 0 mm 2 mps 656 mmHg 24%
18:00 +31°C° 0 mm 2 mps 656 mmHg 26%
19:00 +29°C° 0 mm 2 mps 656 mmHg 28%
20:00 +27°C° 0 mm 2 mps 657 mmHg 31%
21:00 +26°C° 0 mm 2 mps 657 mmHg 33%
22:00 +25°C° 0 mm 2 mps 657 mmHg 35%
23:00 +25°C° 0 mm 3 mps 657 mmHg 36%

Tomorrow, 29 October, Thursday

Time Temperature Precipitation Wind Pressure Humidity
00:00 +24°C° 0 mm 2 mps 657 mmHg 39%
01:00 +23°C° 0 mm 2 mps 657 mmHg 42%
02:00 +21°C° 0 mm 2 mps 656 mmHg 45%
03:00 +20°C° 0 mm 2 mps 657 mmHg 49%
04:00 +20°C° 0 mm 2 mps 657 mmHg 53%
05:00 +19°C° 0 mm 2 mps 657 mmHg 57%
06:00 +21°C° 0 mm 3 mps 658 mmHg 52%
07:00 +25°C° 0 mm 4 mps 659 mmHg 46%
08:00 +27°C° 0 mm 5 mps 660 mmHg 41%
09:00 +29°C° 0 mm 4 mps 660 mmHg 35%
10:00 +33°C° 0 mm 3 mps 660 mmHg 30%
11:00 +35°C° 0 mm 3 mps 660 mmHg 24%
12:00 +36°C° 0 mm 2 mps 660 mmHg 21%
13:00 +37°C° 0 mm 2 mps 659 mmHg 19%
14:00 +38°C° 0 mm 2 mps 658 mmHg 17%
15:00 +37°C° 0 mm 2 mps 658 mmHg 18%
16:00 +35°C° 0 mm 1 mps 657 mmHg 19%
17:00 +34°C° 0 mm 1 mps 656 mmHg 21%
18:00 +32°C° 0 mm 2 mps 657 mmHg 23%
19:00 +31°C° 0 mm 2 mps 657 mmHg 25%
20:00 +29°C° 0 mm 2 mps 657 mmHg 27%
21:00 +28°C° 0 mm 3 mps 657 mmHg 30%
22:00 +27°C° 0 mm 3 mps 657 mmHg 33%
23:00 +26°C° 0 mm 3 mps 657 mmHg 36%

Day after tomorrow, 30 October, Friday

Time Temperature Precipitation Wind Pressure Humidity
00:00 +25°C° 0 mm 3 mps 657 mmHg 39%
01:00 +24°C° 0 mm 2 mps 657 mmHg 41%
02:00 +23°C° 0 mm 2 mps 657 mmHg 44%
03:00 +21°C° 0 mm 2 mps 657 mmHg 46%
04:00 +21°C° 0 mm 2 mps 658 mmHg 48%
05:00 +20°C° 0 mm 2 mps 658 mmHg 50%
06:00 +22°C° 0 mm 3 mps 659 mmHg 46%
07:00 +25°C° 0 mm 4 mps 660 mmHg 42%
08:00 +27°C° 0 mm 5 mps 661 mmHg 38%
09:00 +29°C° 0 mm 4 mps 661 mmHg 32%
10:00 +33°C° 0 mm 4 mps 661 mmHg 27%
11:00 +35°C° 0 mm 3 mps 661 mmHg 22%
12:00 +36°C° 0 mm 3 mps 660 mmHg 19%
13:00 +37°C° 0 mm 3 mps 659 mmHg 17%
14:00 +38°C° 0 mm 3 mps 659 mmHg 14%
15:00 +37°C° 0 mm 3 mps 658 mmHg 15%
16:00 +36°C° 0 mm 4 mps 658 mmHg 15%
17:00 +36°C° 0 mm 4 mps 657 mmHg 15%
18:00 +33°C° 0 mm 4 mps 657 mmHg 18%
19:00 +30°C° 0 mm 4 mps 658 mmHg 21%
20:00 +28°C° 0 mm 4 mps 658 mmHg 24%
21:00 +27°C° 0 mm 4 mps 658 mmHg 27%
22:00 +26°C° 0 mm 4 mps 658 mmHg 31%
23:00 +26°C° 0 mm 4 mps 659 mmHg 34%

31 October, Saturday

Time Temperature Precipitation Wind Pressure Humidity
00:00 +25°C° 0 mm 4 mps 658 mmHg 36%
01:00 +23°C° 0 mm 4 mps 658 mmHg 38%
02:00 +24°C° 0 mm 3 mps 658 mmHg 40%
03:00 +22°C° 0 mm 3 mps 658 mmHg 42%
04:00 +22°C° 0 mm 3 mps 659 mmHg 44%
05:00 +21°C° 0 mm 3 mps 659 mmHg 46%
06:00 +23°C° 0 mm 4 mps 659 mmHg 42%
07:00 +26°C° 0 mm 5 mps 660 mmHg 38%
08:00 +28°C° 0 mm 5 mps 661 mmHg 34%
09:00 +30°C° 0 mm 5 mps 661 mmHg 30%
10:00 +32°C° 0 mm 5 mps 661 mmHg 26%
11:00 +34°C° 0 mm 5 mps 661 mmHg 22%
12:00 +35°C° 0 mm 4 mps 660 mmHg 21%
13:00 +35°C° 0 mm 4 mps 659 mmHg 20%
14:00 +36°C° 0 mm 4 mps 659 mmHg 19%
15:00 +35°C° 0 mm 4 mps 658 mmHg 20%
16:00 +34°C° 0 mm 4 mps 658 mmHg 22%
17:00 +33°C° 0 mm 4 mps 657 mmHg 24%
18:00 +30°C° 0 mm 3 mps 658 mmHg 27%
19:00 +29°C° 0 mm 3 mps 658 mmHg 30%
20:00 +27°C° 0 mm 3 mps 658 mmHg 33%
21:00 +26°C° 0 mm 3 mps 658 mmHg 35%
22:00 +25°C° 0 mm 3 mps 658 mmHg 38%
23:00 +24°C° 0 mm 3 mps 658 mmHg 41%

1 November, Sunday

Time Temperature Precipitation Wind Pressure Humidity
00:00 +22°C° 0 mm 3 mps 658 mmHg 43%
01:00 +22°C° 0 mm 3 mps 658 mmHg 45%
02:00 +21°C° 0 mm 3 mps 657 mmHg 47%
03:00 +20°C° 0 mm 3 mps 658 mmHg 50%
04:00 +20°C° 0 mm 3 mps 658 mmHg 53%
05:00 +19°C° 0 mm 2 mps 658 mmHg 56%
06:00 +21°C° 0 mm 3 mps 659 mmHg 51%
07:00 +23°C° 0 mm 4 mps 659 mmHg 46%
08:00 +26°C° 0 mm 4 mps 660 mmHg 41%
09:00 +28°C° 0 mm 4 mps 660 mmHg 35%
10:00 +31°C° 0 mm 3 mps 660 mmHg 29%
11:00 +34°C° 0 mm 3 mps 660 mmHg 23%
12:00 +34°C° 0 mm 3 mps 660 mmHg 22%
13:00 +34°C° 0 mm 3 mps 659 mmHg 22%
14:00 +34°C° 0 mm 3 mps 658 mmHg 21%
15:00 +34°C° 0 mm 3 mps 658 mmHg 22%
16:00 +33°C° 0 mm 3 mps 657 mmHg 24%
17:00 +31°C° 0 mm 3 mps 657 mmHg 25%
18:00 +29°C° 0 mm 2 mps 657 mmHg 29%
19:00 +27°C° 0 mm 2 mps 657 mmHg 33%
20:00 +25°C° 0 mm 2 mps 657 mmHg 38%
21:00 +24°C° 0 mm 2 mps 657 mmHg 40%
22:00 +24°C° 0 mm 2 mps 657 mmHg 42%
23:00 +23°C° 0 mm 2 mps 658 mmHg 44%

2 November, Monday

Time Temperature Precipitation Wind Pressure Humidity
00:00 +21°C° 0 mm 2 mps 657 mmHg 47%
01:00 +21°C° 0 mm 2 mps 657 mmHg 49%
02:00 +20°C° 0 mm 2 mps 657 mmHg 52%
03:00 +19°C° 0 mm 2 mps 657 mmHg 54%
04:00 +19°C° 0 mm 2 mps 657 mmHg 57%
05:00 +18°C° 0 mm 2 mps 657 mmHg 60%
06:00 +21°C° 0 mm 3 mps 658 mmHg 54%
07:00 +24°C° 0 mm 3 mps 659 mmHg 49%
08:00 +27°C° 0 mm 4 mps 660 mmHg 43%
09:00 +30°C° 0 mm 3 mps 660 mmHg 36%
10:00 +34°C° 0 mm 2 mps 660 mmHg 29%
11:00 +36°C° 0 mm 1 mps 661 mmHg 22%
12:00 +35°C° 0 mm 1 mps 660 mmHg 22%
13:00 +35°C° 0 mm 1 mps 659 mmHg 22%
14:00 +35°C° 0 mm 1 mps 658 mmHg 21%
15:00 +34°C° 0 mm 1 mps 658 mmHg 22%
16:00 +34°C° 0 mm 1 mps 657 mmHg 23%
17:00 +33°C° 0 mm 1 mps 657 mmHg 24%
18:00 +30°C° 0 mm 1 mps 656 mmHg 28%
19:00 +28°C° 0 mm 1 mps 656 mmHg 33%
20:00 +25°C° 0 mm 2 mps 656 mmHg 38%
21:00 +25°C° 0 mm 1 mps 657 mmHg 38%
22:00 +24°C° 0 mm 1 mps 657 mmHg 39%
23:00 +24°C° 0 mm 1 mps 657 mmHg 40%
Show more